Home > Weather > Dannenberg > Past weeks

Flag for Germany Weather for the Past 2 Weeks in Dannenberg, Lower Saxony, Germany

Now
50 °F

Partly sunny.


Feels Like: 48 °F
Forecast: 39 / 58 °F
Wind: 5 mph from Northwest

Location: Mecklenburg-Vorpommern - Parchim

Current Time: May 3, 2016 at 8:26:51 PM

Latest Report: May 3, 2016 at 6:50 PM


Visibility: N/A

Pressure: 30.12 "Hg

Humidity: 82%

Dew Point: 45 °F

Location of DannenbergLocation

Historic Weather in Dannenberg — Graph

°F

Dannenberg Temperature Yesterday

Maximum temperature yesterday: 66 °F (at 3:20 PM)
Minimum temperature yesterday: 34 °F (at 6:50 AM)
Average temperature yesterday: 61 °F

High & Low Weather Summary for the Past Weeks

 TemperatureHumidityPressure
High66 °F (May 2, 3:20 PM)100% (Apr 21, 6:20 AM)30.36 "Hg (Apr 21, 6:20 AM)
Low30 °F (Apr 21, 6:50 AM)35% (May 2, 3:20 PM)29.42 "Hg (Apr 26, 6:20 AM)
Average48 °F65%29.97 "Hg
* Reported Apr 18 6:20 PM — May 3 6:50 PM, Dannenberg, Weather by CustomWeather, © 2016

Note: Actual official high and low records may vary slightly from our data, if they occured in-between our weather recording intervals... More about our weather records

Advertising

Dannenberg Weather History for the Previous 24 Hours

Scroll right to see more
 ConditionsComfort  
Time TempWeatherWind HumidityBarometerVisibility
6:50 PM
Tue, May 3
50 °FPartly sunny.5 mph82%30.12 "HgN/A
6:20 PM50 °FBroken clouds.7 mph82%30.15 "HgN/A
5:50 PM50 °FPartly sunny.12 mph76%30.15 "HgN/A
5:20 PM50 °FPartly sunny.7 mph71%30.12 "HgN/A
4:50 PM50 °FPartly sunny.9 mph71%30.12 "HgN/A
4:20 PM52 °FPartly sunny.16 mph72%30.12 "HgN/A
3:50 PM52 °FBroken clouds.15 mph72%30.09 "HgN/A
3:20 PM54 °FPartly sunny.14 mph72%30.09 "HgN/A
2:50 PM54 °FBroken clouds.17 mph77%30.07 "HgN/A
2:20 PM55 °FBroken clouds.20 mph77%30.07 "HgN/A
1:20 PM61 °FSunny.16 mph59%30.04 "Hg10 mi
12:50 PM63 °FPassing clouds.9 mph56%30.01 "HgN/A
12:20 PM64 °FPassing clouds.9 mph49%30.01 "HgN/A
11:50 AM64 °FSunny.12 mph49%30.04 "Hg10 mi
10:50 AM63 °FPassing clouds.12 mph52%30.04 "HgN/A
10:20 AM61 °FPassing clouds.9 mph52%30.04 "HgN/A
9:50 AM61 °FSunny.12 mph55%30.04 "Hg10 mi
9:20 AM61 °FPassing clouds.12 mph52%30.04 "HgN/A
8:50 AM59 °FPassing clouds.8 mph55%30.01 "HgN/A
8:20 AM59 °FPassing clouds.6 mph55%30.04 "HgN/A
7:50 AM55 °FPassing clouds.6 mph63%30.04 "HgN/A
7:20 AM50 °FSunny.5 mph76%30.04 "Hg10 mi
6:50 AM45 °FPassing clouds.6 mph81%30.04 "HgN/A
6:20 AM41 °FPassing clouds.6 mph93%30.04 "HgN/A
Weather by CustomWeather, © 2016

See weather overviewHow to use our weather pages